Regional Weather Roundup
Issued by NWS

Home | Current Version | Previous Version | Text Only | Print | Product List | Glossary Off
Versions: 1 2 3 4 5 6 7 8 9 10 11 12 13 14 15 16 17 18 19 20 21 22 23 24 25 26 27 28 29 30 31 32 33 34 35 36 37 38 39 40 41 42 43 44 45 46 47 48 49 50

000
ASUS45 KSLC 231110
RWRUT

UTAH REGIONAL WEATHER ROUNDUP
NATIONAL WEATHER SERVICE SALT LAKE CITY UT
500 AM MDT MON OCT 23 2017

UTZ001>011-023>025-231200-

NORTHERN UTAH

CITY           SKY/WX    TMP DP  RH WIND       PRES   REMARKS
BRIGHAM CITY   PTCLDY    51  38  60 N14       30.50R
HILL AFB       PTCLDY    48  37  67 CALM      30.48S
LOGAN          PTCLDY    52  39  61 NW12      30.49R
OGDEN          PTCLDY    48  39  71 NW5       30.48R
SALT LAKE CITY PTCLDY    49  37  63 CALM      30.48R
TOOELE VALLEY  CLEAR     37  32  81 SW5       30.50R WCI  34
WENDOVER       PTCLDY    51  35  54 VRB5      30.50R
WEST JORDAN    CLEAR     47  36  65 CALM      30.49R

$$

UTZ011>015-024>027-231200-

CENTRAL/NORTHEAST UTAH

CITY           SKY/WX    TMP DP  RH WIND       PRES   REMARKS
PROVO AIRPORT  PTCLDY    38  30  73 CALM      30.48R
MOAB/CANYONLAN PTCLDY    38  18  44 W6        30.39S WCI  33
DELTA          PTCLDY    37  28  70 CALM      30.47R
PRICE          CLEAR     39  18  42 NE7       30.44S WCI  34
ROOSEVELT      CLOUDY    41  27  56 N3        30.43R
VERNAL         CLOUDY    42  27  55 CALM      30.40R

$$

UTZ013>016-019>022-027-231200-

SOUTHERN UTAH

CITY           SKY/WX    TMP DP  RH WIND       PRES   REMARKS
BRYCE CANYON   PTCLDY    31  17  56 NW9       30.54S WCI  23
CEDAR CITY     PTCLDY    38  21  50 NE5       30.45S WCI  34
MILFORD        CLEAR     34  17  50 VRB3      30.46R
ST GEORGE      MOSUNNY   52  24  33 S3        30.34F
HANKSVILLE     CLEAR     34  18  51 CALM      30.43R
BLANDING         N/A     40  20  44 NW3       30.49S

$$

REGIONAL REPORTS     COLORADO/ARIZONA

CITY           SKY/WX    TMP DP  RH WIND       PRES   REMARKS
CRAIG, CO      CLOUDY    45  31  58 CALM      30.44R
GRAND JUNCTION CLOUDY    42  25  50 E13       30.41S
RIFLE, CO      CLOUDY    37  30  75 S3        30.47R
MONTROSE, CO   CLOUDY    35  23  61 SE8       30.46F WCI  29
CORTEZ, CO     CLOUDY    32  20  61 E7        30.43S WCI  26
COLORADO CITY    N/A     36  25  64 E7        30.43F WCI  30
PAGE, AZ       PTCLDY    49  24  37 CALM      30.37S
GRAND CANYON   MOCLDY    28  12  51 NE5       30.48S WCI  23
KINGMAN, AZ    CLEAR     50  26  39 E7        30.31R
FLAGSTAFF, AZ  PTCLDY    28  13  53 CALM      30.48S

$$

REGIONAL REPORTS    NEVADA/IDAHO/WYOMING

CITY           SKY/WX    TMP DP  RH WIND       PRES   REMARKS
LAS VEGAS, NV  CLEAR     60  27  28 SW8       30.26F
ELY, NY        CLEAR     32  17  54 SE9       30.55R WCI  24
ELKO, NV       CLEAR     33  27  78 S5        30.53S WCI  29
POCATELLO, ID  CLOUDY    44  42  93 SW15      30.50R
BURLEY, ID     PTCLDY    47  42  83 W16       30.49S
FORT BRIDGER,    N/A     45  33  62 W14       30.52R
EVANSTON, WY   CLOUDY    43  33  68 W10       30.50S
ROCK SPRINGS,  CLOUDY    44  30  57 W23G32    30.41R
KEMMERER, WY   CLOUDY    43  32  65 W26G41    30.43S

$$



USA.gov is the U.S. government's official web portal to all federal, state and local government web resources and services.